Погода в Гордали-Юрте

Россия / Чеченская Республика     43°16′55″N   46°17′45″E
темп.,
°C
ветер,
м/с
пор.,
м/с
влажн.,
%
обл.,
%
осадки,
мм/ч
давл.,
гПа
погр.,
м
18 апреля, вс
вс1800:00+12зюз2281100 0.0 102125
03:00+11зюз118353 0.0 102118
06:00+11зюз1186100 0.0 102044
09:00+15св2366100 0.0 1018629
12:00+19св334755 0.0 1016989
15:00+20всв334940 0.6 10151142
18:00+17св2366100 0.3 101746
21:00+14в1274100 0.7 101745
19 апреля, пн
пн1900:00+12юв2274100 0.0 101736
03:00+12ююв1177100 0.0 101613
06:00+12юв117699 0.0 101619
09:00+18ссв23558 0.0 1016484
12:00+21всв56468 0.0 1015939
15:00+21всв7743100 0.0 10151092
18:00+16всв485895 0.0 1013294
21:00+12ссв006966 0.0 101412
20 апреля, вт
вт2000:00+12вюв117297 0.0 101312
03:00+11ссз117683 0.0 101210
06:00+12всв117692 0.0 101223
09:00+19всв3456100 0.0 1009412
12:00+27в563835 0.0 1005652
15:00+25всв5845100 0.0 1003399
18:00+17ссв2375100 0.0 1006153
21:00+13ссз2288100 0.1 100840
21 апреля, ср
ср2100:00+14з3385100 0.2 100979
03:00+15з61279100 0.2 1012630
06:00+14з6108492 0.0 1015762
09:00+14з71079100 0.1 1017955
12:00+13з6983100 0.3 1020951
15:00+12з4676100 0.7 1022709
18:00+11з2579100 0.1 1023292
21:00+11з3681100 0.2 1022301
22 апреля, чт
чт2200:00+11з2479100 0.1 1022166
03:00+10з2479100 0.1 1022148
06:00+10з2480100 0.0 1022185
09:00+11з2377100 0.0 1022307
12:00+12з4571100 0.0 1022889
15:00+12з5675100 0.0 1023840
18:00+11з3578100 0.0 1023385
21:00+11юз2582100 0.2 1024228